Theta_e
307 309 313 317 321 323 321 321 318 320 321 312 311 312 316 321 321 321 321 320 320 323 326 327 326 327 328 332 340 345 345 346 346 345 346 352 352 352 355 353 354 351 350 345 339 336 333 332 330 329 328 328 329 329 331 335 339 343 344 343 342 341 338 335 337 337 339 340 340 341 339 338 337 337 337 337 339 340 340 339 339 341 341 341 341 341 341 342 342 342 340 341 340 339 338 338 338
314 318 319 320 321 320 320 321 317 315 316 310 313 314 316 321 320 319 320 320 324 329 330 329 328 328 332 333 335 344 347 345 346 350 350 351 352 354 354 353 353 351 350 344 338 335 332 331 329 329 328 328 329 329 330 333 338 342 344 344 343 342 338 335 337 338 339 339 340 340 339 337 334 333 333 333 335 337 337 339 339 340 341 341 340 340 340 340 341 340 339 340 340 339 339 339 337
319 323 322 319 318 317 319 322 317 311 310 309 312 318 320 320 319 320 320 323 331 330 329 330 329 331 333 333 333 343 348 346 346 347 348 351 353 354 353 354 352 351 349 344 341 336 332 331 329 329 328 328 328 328 329 331 336 340 343 344 343 342 338 337 339 338 338 339 340 340 337 333 332 333 334 335 335 334 335 338 339 338 340 340 340 339 339 339 340 339 339 339 339 339 338 338 337
318 322 320 317 317 317 318 319 318 312 309 307 309 319 322 320 322 324 323 326 329 328 328 331 330 333 339 340 339 343 346 345 346 346 349 351 352 353 354 353 351 351 348 347 345 338 332 331 330 328 328 328 328 329 329 330 335 339 341 343 344 342 340 341 341 338 337 339 340 339 336 332 332 334 335 336 336 336 335 337 339 339 340 339 340 339 338 339 339 339 339 338 339 339 337 337 337
314 318 318 318 318 319 319 318 318 312 309 309 309 320 325 324 327 326 327 328 326 327 329 330 331 335 342 346 344 345 346 344 346 347 349 351 352 353 353 352 351 351 349 348 347 340 333 331 329 329 328 328 329 329 329 330 333 336 338 342 343 342 341 341 340 338 338 339 339 337 334 332 332 333 334 336 337 337 335 335 336 337 339 338 338 338 337 338 339 338 338 338 338 338 337 336 335
313 316 318 318 319 320 321 318 314 311 314 316 314 321 327 326 330 328 329 329 326 327 328 331 332 335 344 346 345 346 347 345 347 348 351 351 352 353 352 352 350 350 350 348 347 341 334 331 330 329 328 328 329 329 329 329 331 334 335 339 341 341 340 339 338 337 338 339 337 334 331 331 331 332 335 336 336 337 336 336 333 332 337 338 337 337 337 337 338 338 338 338 338 338 335 333 332
314 316 317 317 316 319 318 315 313 313 316 320 318 320 326 327 329 327 328 328 326 327 328 333 331 336 344 345 344 347 348 347 347 348 351 351 351 353 351 350 350 351 350 349 348 340 333 332 329 329 329 328 329 329 329 329 330 333 334 337 338 339 338 338 338 338 338 337 334 331 330 330 332 333 334 335 336 337 336 336 332 330 334 337 337 337 337 337 338 338 338 338 337 335 332 330 328
315 317 317 317 317 317 315 313 313 316 318 320 320 321 326 327 326 325 326 327 326 326 326 331 332 338 343 343 345 347 349 348 348 348 350 350 351 350 350 350 350 350 349 350 346 338 334 332 330 329 328 328 329 329 329 329 332 334 335 336 337 337 337 338 338 337 336 334 332 329 329 331 332 333 333 335 335 336 336 336 333 330 332 334 335 336 336 337 337 337 337 337 335 331 330 330 328
316 316 317 319 318 316 313 313 314 316 318 319 320 322 323 324 323 322 322 322 324 327 328 330 333 340 342 344 346 347 348 349 348 348 350 349 350 349 350 350 349 349 349 349 344 337 335 333 330 329 328 329 329 329 330 330 333 335 335 336 336 337 338 338 337 336 334 333 331 329 331 332 331 332 333 334 334 335 335 335 334 332 332 332 333 335 335 335 335 336 336 335 332 330 330 330 329
315 315 317 319 318 313 310 312 314 317 318 319 319 320 321 321 321 321 320 321 324 326 328 331 333 339 341 346 348 348 348 349 348 348 349 348 348 347 347 348 348 349 349 349 343 338 336 333 331 329 328 329 329 329 329 331 333 335 334 335 335 336 336 336 335 333 333 333 332 332 333 332 332 333 333 333 333 333 334 335 333 332 332 331 330 334 334 334 334 335 335 333 331 331 330 329 328
315 315 316 316 314 310 309 310 314 318 319 319 321 320 319 319 319 319 319 319 323 327 328 332 334 336 342 348 349 348 348 349 349 348 348 345 345 344 345 347 349 349 349 348 344 340 337 334 332 329 329 329 329 329 329 330 331 333 333 333 333 333 333 333 333 332 332 333 334 334 334 334 333 334 334 334 333 331 333 333 332 331 331 331 330 331 332 333 333 333 334 332 331 330 329 328 328
316 316 317 313 311 311 312 311 314 318 319 320 320 319 319 319 318 318 318 319 320 325 328 332 333 337 344 348 349 348 349 349 349 347 346 343 343 344 343 346 349 349 348 347 346 342 337 335 333 331 329 329 330 330 329 330 329 331 331 330 330 330 330 330 332 332 333 334 335 335 334 335 336 336 335 334 333 331 331 332 332 330 330 330 330 331 331 332 332 332 333 331 331 330 328 329 328
315 317 317 314 313 314 313 313 315 318 318 320 319 318 319 318 318 317 317 319 319 322 327 331 335 339 342 347 348 347 348 348 348 347 345 343 342 342 342 346 348 348 347 348 347 343 340 337 336 333 331 330 330 331 330 330 330 330 330 329 329 329 331 331 332 333 334 335 335 335 335 336 337 337 336 334 333 331 331 332 332 330 329 330 331 331 332 333 332 332 332 330 331 330 329 330 327
315 316 317 316 316 316 315 313 314 315 315 320 318 318 319 318 318 317 317 318 318 320 324 329 335 341 343 346 347 347 347 348 348 346 344 343 343 344 343 344 347 347 346 347 346 345 343 340 337 335 333 333 333 333 331 331 331 330 330 330 330 331 332 333 334 335 335 336 336 336 336 336 337 337 336 334 332 331 331 332 331 330 330 329 329 329 330 333 333 332 332 330 331 330 329 328 326
316 316 316 315 314 315 315 314 314 313 315 319 318 318 319 317 319 317 318 317 318 321 323 329 332 339 343 344 345 347 348 348 348 346 345 345 344 345 343 344 345 346 345 346 346 345 344 342 341 337 335 335 334 335 334 333 332 331 331 331 332 333 333 335 336 336 336 337 336 336 336 337 337 336 336 334 332 331 331 330 330 330 329 329 328 327 328 332 334 333 331 330 329 328 328 327 325
316 316 317 315 313 312 314 316 315 314 315 318 318 319 318 318 319 318 318 318 318 320 322 328 330 335 338 338 342 345 348 348 347 345 346 346 346 345 343 344 344 344 344 344 345 345 344 344 343 340 338 338 337 336 336 336 333 332 332 333 334 335 335 336 337 337 336 336 336 336 336 336 336 336 336 334 333 331 330 329 328 328 328 328 326 326 327 329 332 332 331 329 328 327 328 327 326
316 316 316 313 313 312 315 317 315 314 317 318 317 319 317 318 319 319 320 319 319 319 322 328 330 335 334 333 340 345 348 348 347 346 346 346 346 346 344 344 343 343 343 343 345 345 345 344 344 343 342 342 341 338 337 338 335 334 334 333 336 336 336 337 337 337 337 337 336 336 335 335 335 336 336 335 334 332 331 330 327 326 325 324 323 323 325 327 329 330 330 329 328 328 329 328 327
316 316 314 312 313 314 315 317 317 317 318 318 318 318 318 318 319 320 320 321 320 319 323 331 334 337 337 337 341 346 349 348 348 346 346 345 346 346 345 344 342 342 343 342 343 344 345 344 343 343 344 343 342 340 339 340 337 337 337 335 336 336 336 337 337 337 337 338 337 337 336 336 335 335 336 336 335 332 332 332 327 325 323 321 321 320 321 325 328 329 329 328 328 329 329 327 325
315 316 314 313 315 316 317 318 318 318 318 318 318 318 318 318 318 318 322 321 321 320 321 332 338 340 342 343 345 347 348 348 348 346 347 346 345 346 345 344 343 342 342 342 342 343 343 343 343 343 344 343 343 342 341 341 338 339 339 338 338 336 337 336 336 336 336 338 338 337 336 335 336 336 336 335 334 331 331 332 328 325 324 322 322 322 320 323 327 328 328 327 327 327 327 327 326
315 315 314 314 315 316 317 318 318 317 317 317 317 317 317 317 317 319 321 322 323 321 319 329 338 341 342 343 345 347 348 348 348 347 346 346 346 344 342 343 344 342 341 342 341 341 341 342 343 342 343 343 343 343 342 341 340 340 340 340 339 337 338 336 336 337 336 337 338 337 337 335 335 336 336 335 335 332 332 332 329 326 326 325 324 325 325 325 326 327 328 326 325 324 325 327 329
315 315 314 315 316 316 317 317 317 318 317 317 317 317 317 317 319 320 320 322 322 321 319 321 335 340 342 343 344 346 346 348 346 342 341 344 346 342 340 342 343 341 339 339 339 340 340 340 341 341 342 342 341 341 340 341 339 339 341 340 339 339 339 337 337 338 336 336 337 337 339 336 334 336 337 336 336 334 334 331 329 328 329 329 326 328 332 330 328 329 329 326 325 325 325 326 328
315 315 315 315 315 316 317 317 317 316 317 316 317 316 317 317 318 319 318 320 321 324 324 319 332 337 340 343 345 347 345 344 341 337 336 340 345 344 343 342 342 341 340 340 338 337 338 338 339 340 340 340 340 339 338 338 339 340 341 341 340 339 339 338 337 337 336 335 335 337 338 337 336 336 337 336 335 334 335 333 332 332 332 333 330 330 333 332 331 332 331 328 328 329 329 329 328
314 314 315 315 315 316 316 317 316 315 316 315 316 316 317 317 317 318 319 321 323 330 333 329 333 337 338 343 345 345 343 340 338 336 333 337 344 344 343 342 342 342 341 341 339 336 336 337 338 338 339 339 338 338 337 337 338 339 340 342 341 340 338 337 335 337 338 336 336 337 336 337 337 336 336 335 335 335 334 334 334 334 333 334 333 332 333 332 332 333 332 331 331 331 331 331 330
314 314 315 315 315 316 316 316 316 316 316 315 316 317 317 317 316 319 319 322 326 330 335 334 335 338 340 343 345 344 341 339 337 335 333 335 340 341 342 341 341 341 341 341 340 338 337 338 337 338 338 338 337 336 337 336 335 336 336 339 340 339 338 336 337 338 338 337 336 336 335 336 336 335 335 333 334 334 334 334 334 333 334 334 334 333 333 332 331 332 332 331 331 331 331 332 331
314 314 314 315 315 315 316 316 315 315 315 315 316 316 316 316 316 320 321 322 327 328 332 334 335 338 341 344 344 342 340 338 337 335 334 333 335 339 340 339 338 337 340 340 336 336 336 335 335 337 338 337 337 336 337 337 335 335 335 336 338 337 337 335 336 338 336 335 336 335 335 336 335 334 335 333 333 335 334 334 334 333 333 333 334 334 333 331 331 330 331 332 331 331 331 331 331
314 314 314 315 315 315 316 315 316 315 315 316 316 316 316 318 318 320 322 324 326 328 330 332 332 336 341 343 342 340 338 338 338 336 334 331 333 339 336 335 336 336 338 336 333 332 333 332 334 336 336 336 335 335 336 336 335 336 335 336 336 336 335 334 334 336 335 335 337 335 334 336 335 334 335 335 334 335 335 335 335 333 333 334 334 335 333 331 330 330 331 332 331 331 331 331 330
314 314 315 314 315 315 315 314 315 315 315 316 316 316 316 318 318 318 323 326 326 329 329 330 332 335 339 340 340 339 338 337 337 336 334 331 333 338 335 333 333 335 336 333 332 332 331 331 331 332 331 332 332 333 334 335 336 336 335 335 335 335 334 334 334 335 335 336 336 335 334 335 335 334 335 335 334 335 336 336 335 332 333 335 334 334 332 331 331 331 330 330 331 331 331 330 329
314 314 314 315 315 315 315 315 315 316 315 316 316 316 317 318 317 318 324 327 325 330 330 330 331 333 337 340 339 338 337 337 336 335 335 334 333 336 335 333 332 334 334 332 332 331 330 329 330 330 330 331 331 331 331 332 331 332 334 335 335 334 333 333 333 334 335 336 336 335 335 334 334 335 337 336 335 335 336 336 334 332 332 332 333 333 332 333 333 331 330 330 330 330 330 331 330
314 314 314 315 315 314 314 314 316 315 315 317 316 314 316 318 317 319 324 324 325 330 329 328 330 330 334 339 339 337 337 336 335 334 334 333 332 334 334 333 332 333 333 332 332 330 329 330 330 330 328 329 331 331 330 330 330 330 330 333 335 335 333 332 333 333 334 335 336 336 335 334 334 335 337 336 336 336 335 335 333 333 333 332 333 334 333 333 332 330 329 329 330 330 330 330 330
314 315 314 314 314 313 315 315 315 315 315 317 316 311 313 317 318 321 323 324 324 328 330 328 328 328 331 337 336 336 336 334 334 333 333 332 332 334 334 333 332 332 332 330 331 330 329 329 330 330 328 329 330 329 329 330 329 329 329 332 335 336 335 332 332 334 334 335 336 336 335 335 335 336 336 335 335 335 335 335 333 334 335 333 333 334 334 333 332 331 329 328 329 330 330 330 330
314 313 313 313 310 311 316 316 315 315 315 317 316 310 312 317 319 321 322 323 322 326 330 328 328 329 330 335 336 335 334 333 333 331 331 331 332 333 332 332 331 331 331 331 332 331 329 330 331 330 328 329 330 329 330 329 329 330 330 332 332 334 335 334 334 334 334 334 334 334 334 334 334 334 335 333 333 335 335 334 333 334 336 334 334 334 333 332 332 332 330 329 330 330 331 331 331
315 311 310 312 309 311 316 316 315 316 315 317 316 310 312 318 318 319 320 321 321 323 327 328 331 333 332 334 335 335 334 332 332 331 332 332 332 332 331 332 331 329 331 331 332 334 332 332 332 332 331 330 331 331 331 330 329 329 329 330 329 330 331 332 333 333 333 334 333 333 333 334 333 333 334 333 332 334 334 333 333 334 335 335 334 334 333 332 333 333 331 331 330 330 331 331 332
314 312 308 311 309 311 314 315 316 316 316 317 315 312 313 317 317 318 318 318 320 319 325 332 332 333 337 340 336 334 335 333 331 333 333 332 331 332 331 332 331 329 330 331 333 335 334 334 333 335 333 332 332 331 330 329 328 327 327 328 327 328 329 329 331 331 332 333 332 333 333 333 333 333 334 333 333 334 333 333 334 334 334 334 333 333 333 333 333 332 331 331 331 331 330 331 332
313 312 310 312 311 311 311 314 317 316 316 316 316 315 315 318 318 318 318 317 320 318 324 333 331 330 336 341 336 332 334 334 332 333 333 331 331 331 331 331 331 330 331 331 334 334 333 333 333 334 333 331 331 329 328 328 328 326 325 325 324 326 327 326 328 330 330 331 331 332 332 331 332 333 332 333 334 333 332 333 334 334 334 335 333 332 332 332 332 331 330 330 331 330 330 331 332
312 312 310 310 312 312 311 314 317 316 316 316 316 315 315 317 317 317 318 317 319 317 322 331 331 329 331 334 333 330 333 334 332 331 330 330 331 330 330 330 329 330 331 333 334 332 332 333 333 335 333 330 329 329 329 328 326 325 324 323 322 324 325 324 326 328 328 329 330 330 330 330 330 331 330 330 332 331 331 332 332 332 333 334 334 332 333 332 331 330 330 331 331 331 330 331 331
315 314 312 310 311 312 313 316 316 317 316 316 316 315 315 317 317 318 318 317 319 318 320 328 331 332 329 330 331 330 332 332 330 329 329 329 329 330 328 327 329 330 331 333 333 332 333 334 335 334 332 329 328 329 328 326 325 325 325 325 323 324 325 324 325 326 326 328 328 327 328 329 329 329 329 329 329 329 329 330 330 331 331 332 333 332 332 332 331 330 331 331 331 330 329 328 330
318 317 314 312 312 312 315 317 317 317 316 316 316 316 316 317 318 319 318 318 319 318 320 322 328 331 332 331 329 329 331 329 326 328 329 327 328 328 327 327 330 330 330 332 332 332 334 335 336 334 330 329 328 327 326 326 326 324 324 325 323 322 322 323 325 325 325 324 323 323 323 325 326 326 327 328 328 328 329 330 330 331 331 331 333 332 331 331 331 330 330 330 329 328 326 325 327
318 317 314 312 313 313 316 318 317 317 316 316 317 316 317 317 318 318 318 319 319 317 320 320 320 323 325 327 328 328 330 328 326 328 328 326 327 328 328 328 330 330 331 331 331 332 333 335 335 333 328 328 327 326 326 325 324 323 323 324 323 322 321 322 323 323 322 323 322 322 323 324 324 324 324 325 326 327 328 328 330 332 331 331 332 332 331 331 331 330 330 329 327 327 327 326 328
317 316 313 311 313 313 316 319 317 317 315 315 317 316 316 318 318 319 318 318 320 319 320 321 321 321 320 321 328 330 329 328 327 330 329 326 327 327 329 331 331 331 332 332 331 331 331 334 335 332 327 326 327 325 325 325 324 323 321 322 323 324 322 322 322 321 321 322 322 323 324 324 324 323 323 323 324 325 326 327 328 329 330 330 331 331 331 331 331 331 330 328 328 328 328 329 330
316 315 311 311 313 312 312 317 318 318 317 316 316 316 317 320 318 317 319 319 320 319 319 321 321 322 322 321 326 329 329 330 330 330 330 328 328 328 330 332 331 332 331 331 333 331 330 331 333 331 326 324 326 324 324 326 324 322 321 320 321 321 320 320 321 321 321 321 322 323 323 323 323 322 322 322 323 323 323 325 326 327 327 328 329 329 329 329 329 330 329 329 329 329 329 328 329
315 315 313 311 313 313 312 317 319 318 319 319 318 315 315 319 318 317 320 319 320 318 318 320 319 320 323 322 325 328 330 330 329 330 331 330 330 328 330 332 332 331 330 331 333 333 332 329 330 331 325 324 326 324 325 325 323 323 321 319 317 318 319 320 321 321 321 321 322 323 323 323 322 322 322 321 321 321 322 323 324 325 326 326 326 327 327 327 327 328 329 329 329 329 328 327 328
313 316 316 314 315 316 316 318 318 316 316 319 319 313 312 315 316 317 319 318 318 319 318 318 318 319 320 321 324 328 331 332 330 331 332 332 330 329 330 331 332 331 330 331 332 334 334 331 332 331 325 325 324 324 325 324 323 322 320 318 317 318 321 322 321 321 320 321 322 322 323 323 322 321 321 321 321 321 322 322 322 322 323 323 323 323 324 324 325 327 327 328 328 328 328 326 327
312 316 317 316 316 317 316 317 316 313 314 318 319 314 312 313 314 317 318 317 318 319 319 319 318 318 318 320 322 323 330 333 334 332 330 329 328 329 331 329 330 330 329 330 330 333 335 335 335 330 325 325 324 325 325 323 322 321 318 317 318 320 323 322 321 320 321 321 322 323 323 323 322 322 321 321 321 321 320 320 319 319 320 320 320 320 321 322 323 324 324 325 326 326 327 326 325
313 317 317 316 316 317 317 316 314 314 315 317 318 316 313 312 314 317 318 317 318 318 319 319 318 319 318 319 320 320 325 330 333 332 330 330 329 329 331 330 328 328 328 328 328 331 335 336 335 329 326 325 324 326 324 321 322 319 318 318 319 321 322 321 320 319 320 321 322 323 323 322 322 322 320 319 319 318 317 317 316 315 316 318 319 320 321 322 321 321 322 323 323 324 325 325 325
316 318 318 316 317 318 317 314 313 315 315 313 314 314 313 312 313 317 317 316 316 318 320 319 318 318 318 318 319 319 321 324 327 328 330 331 329 329 329 330 329 326 326 327 327 331 335 337 334 328 326 325 325 326 323 321 321 319 319 318 319 322 321 320 319 319 320 321 322 322 321 322 321 319 317 315 315 314 314 314 314 313 313 314 316 318 320 321 321 321 321 321 322 322 323 323 323
317 318 317 316 317 318 317 316 312 313 315 313 313 314 313 312 312 315 316 314 316 319 319 319 318 318 319 320 319 320 320 321 321 322 328 330 330 330 328 328 329 326 326 327 328 331 334 336 334 328 326 325 325 325 322 321 321 319 319 319 320 322 320 319 320 319 320 321 321 320 320 320 319 317 315 315 315 314 314 314 313 313 312 312 313 314 317 318 319 320 320 320 320 319 319 319 318
317 317 318 316 317 317 317 315 313 314 316 315 314 313 313 312 313 315 316 316 317 319 320 319 319 318 319 320 320 319 319 320 320 319 323 328 327 329 330 332 331 329 328 328 330 330 332 336 334 328 326 325 325 324 322 322 321 319 319 319 320 320 318 319 320 319 320 320 320 319 319 320 318 317 316 316 316 315 314 314 314 314 313 313 313 314 315 315 316 317 316 317 316 316 316 315 315
317 317 315 315 314 315 315 314 314 316 316 314 313 313 313 312 313 316 318 317 318 319 319 318 318 318 319 320 319 319 319 319 319 319 323 327 326 326 329 331 333 332 331 330 330 329 330 334 333 329 326 325 325 324 322 323 321 320 320 319 319 320 318 319 320 319 320 319 319 320 319 319 318 317 317 316 316 315 314 314 315 315 314 314 314 314 314 315 315 315 315 315 314 314 313 311 309
316 314 312 313 313 314 316 315 316 317 316 315 315 314 313 312 314 316 317 316 317 318 318 318 317 318 319 319 318 320 319 318 319 321 325 328 329 328 327 328 331 335 334 333 332 330 329 333 333 329 327 326 325 324 322 323 322 320 320 319 320 320 319 320 320 320 320 319 320 320 319 319 318 317 317 317 316 316 315 315 315 314 314 314 313 313 313 314 314 314 314 314 313 313 313 311 309
313 311 311 312 314 316 318 317 317 317 316 315 316 315 313 313 316 319 316 316 318 318 318 318 319 320 319 318 318 318 319 319 320 324 326 327 329 330 328 325 328 334 336 335 336 332 327 330 332 329 327 326 325 324 323 323 323 321 321 320 319 319 319 319 320 319 320 320 320 320 320 319 318 318 317 317 317 317 316 316 315 314 314 314 315 314 314 314 313 314 315 314 314 314 311 311 311
313 314 313 312 313 316 318 316 315 316 314 314 314 315 312 314 319 321 317 317 318 317 318 319 320 320 319 318 317 319 319 320 322 325 327 327 329 331 330 327 328 334 336 335 335 330 324 325 329 329 327 327 326 325 324 324 323 322 322 320 319 319 318 319 321 320 320 320 319 320 319 319 319 319 318 317 317 318 317 316 315 314 315 314 314 313 314 314 313 313 314 313 313 312 310 308 307
314 315 314 313 313 314 315 315 315 315 314 313 314 313 314 316 320 319 317 318 317 316 317 318 318 319 318 317 317 319 321 321 322 326 327 328 329 329 330 331 334 335 333 332 331 327 323 324 327 327 328 328 327 325 325 325 324 323 322 320 319 319 318 318 320 320 320 319 320 319 318 320 320 319 319 318 317 318 318 315 315 314 314 313 313 312 312 313 313 312 313 312 312 312 313 313 309
313 312 312 314 316 315 313 314 314 314 315 315 313 313 313 315 317 317 318 318 316 316 316 316 317 317 318 319 320 320 321 322 323 324 326 328 328 328 328 331 333 333 331 330 330 327 324 326 327 325 328 328 326 325 325 326 325 324 323 321 320 320 319 318 319 320 320 319 320 319 317 319 320 320 320 318 317 319 318 316 316 315 314 314 314 314 313 313 313 313 313 313 314 313 313 313 312
311 311 312 314 314 314 314 314 313 313 315 314 312 312 312 311 313 316 317 317 316 315 315 315 316 318 318 319 320 321 322 323 323 324 325 326 327 327 328 328 330 331 329 329 328 327 326 326 326 324 325 326 326 325 325 326 326 325 324 322 321 320 319 319 319 320 320 319 320 320 318 317 319 320 321 319 318 319 319 318 317 316 315 315 315 314 313 313 313 313 313 314 314 313 312 311 312
311 311 312 312 311 312 312 313 313 314 315 314 312 311 310 309 311 314 315 317 317 315 314 315 316 317 319 319 320 321 322 323 323 323 324 325 325 326 327 327 328 329 328 328 328 328 328 327 326 325 325 324 324 326 325 325 326 326 325 323 322 321 321 320 319 320 320 320 320 320 319 318 318 320 321 320 319 319 320 319 318 317 316 316 315 314 313 313 313 313 313 313 312 313 313 312 311
312 312 313 311 311 311 311 312 313 313 315 315 314 312 311 312 315 315 316 317 316 316 316 315 316 317 319 320 320 321 321 323 321 322 323 324 324 325 325 325 326 327 328 328 328 328 328 326 324 325 325 325 324 325 325 325 325 326 326 324 323 323 322 321 321 320 320 321 320 321 320 318 318 319 321 321 319 319 320 319 319 319 318 316 315 314 313 313 313 313 312 312 312 313 313 312 311
312 311 311 311 313 312 312 312 310 311 313 314 315 313 312 315 317 316 317 317 317 317 316 316 316 316 318 320 321 321 321 322 321 321 322 322 323 323 323 324 325 326 326 327 326 326 326 326 325 326 326 326 325 325 325 325 325 325 325 325 324 324 324 323 322 321 320 321 320 319 319 319 319 318 320 321 321 320 320 320 320 320 319 317 316 315 314 314 315 313 313 313 312 312 313 312 311
313 312 311 313 316 316 315 314 314 314 313 313 315 315 314 318 318 315 317 319 318 317 317 317 315 316 318 320 321 321 321 321 321 321 320 320 322 322 322 323 323 323 324 324 324 324 325 325 326 326 326 326 326 325 325 325 325 324 324 324 323 324 324 322 321 321 320 321 321 320 320 320 319 319 319 320 320 320 321 320 320 320 319 318 316 316 315 314 315 314 314 314 312 311 312 312 312
Wind_Speed
5 5 5 6 8 10 8 5 4 4 5 7 8 8 11 12 5 1 3 1 2 2 3 2 1 4 4 5 10 13 14 11 8 5 3 9 21 26 28 28 27 26 26 28 30 27 26 25 24 23 22 21 20 20 18 17 16 15 15 15 15 15 16 17 16 16 14 12 12 14 14 13 13 13 12 11 10 9 9 9 9 9 8 8 8 9 10 10 10 12 13 12 13 13 12 12 11
6 8 8 8 9 7 4 4 4 4 6 7 8 10 12 7 3 5 7 5 2 6 4 3 1 2 4 8 4 9 14 14 13 11 9 19 25 22 25 26 25 26 26 29 30 27 26 24 24 23 22 21 20 19 18 17 16 15 15 15 16 16 16 17 16 16 14 13 13 14 14 13 13 12 11 10 9 9 9 9 8 8 8 8 8 9 10 9 10 11 11 11 13 13 11 12 11
9 11 10 8 7 6 4 4 6 6 7 8 8 11 11 9 4 4 5 2 9 8 1 3 2 2 3 5 3 7 11 12 14 13 12 19 19 17 23 24 24 25 26 27 27 27 26 24 24 23 22 21 20 19 18 16 15 15 15 15 16 16 16 16 16 15 14 13 14 14 14 13 13 12 11 10 10 9 9 9 8 8 8 8 8 8 8 8 10 11 10 11 12 12 11 10 10
9 10 10 8 5 5 5 4 6 7 8 7 9 8 6 7 1 5 6 8 8 3 2 2 2 4 7 7 6 9 10 8 12 10 9 14 16 20 23 23 24 24 24 24 23 26 26 25 24 23 22 21 20 19 18 16 16 16 16 16 16 17 17 16 16 15 14 14 15 15 14 13 12 11 10 11 11 10 9 9 9 9 9 9 8 8 7 8 9 9 10 11 12 12 11 10 9
9 10 10 8 4 3 4 5 6 7 8 8 9 3 3 4 6 7 7 6 3 0 2 2 2 5 9 10 8 5 7 7 10 11 12 17 21 22 22 23 23 22 23 22 22 25 26 25 24 23 22 21 20 19 18 16 16 16 16 17 17 17 17 17 16 15 14 15 15 14 14 12 11 11 11 11 11 10 9 8 9 9 9 9 9 8 8 8 9 9 9 10 11 11 10 9 8
10 12 10 9 5 4 4 5 7 7 10 11 10 3 4 4 7 6 5 3 2 2 3 3 2 4 8 7 8 9 10 6 8 11 16 20 22 22 22 22 21 22 22 21 21 25 27 25 24 23 22 21 20 19 18 17 16 16 17 18 18 18 17 17 16 15 15 15 15 15 14 13 12 11 11 10 10 9 8 8 8 9 10 9 9 7 7 8 9 10 10 10 10 10 8 7 5
10 9 6 7 5 4 5 7 8 8 10 13 13 5 4 6 5 2 2 2 3 3 4 3 2 4 6 4 7 11 14 9 7 11 17 21 23 22 21 20 21 22 21 21 21 26 27 24 24 23 22 21 20 19 18 17 16 17 17 18 18 18 17 17 17 16 16 16 15 15 14 13 12 11 10 9 9 8 8 8 8 9 10 9 8 7 7 7 8 9 9 8 8 8 6 5 4
11 7 3 5 5 4 6 8 9 9 10 11 13 5 9 7 4 5 3 1 3 5 6 5 4 5 6 7 6 8 14 12 12 17 19 22 21 20 20 21 22 22 21 21 22 27 26 24 24 22 22 21 20 19 18 17 16 17 17 18 18 18 18 17 17 17 17 16 15 14 13 12 11 9 9 8 8 8 7 8 9 9 9 8 7 7 7 6 7 7 6 6 7 6 5 5 5
10 7 4 5 6 6 7 8 9 11 13 12 12 2 6 2 0 6 9 5 3 4 5 4 3 5 7 10 8 7 11 11 15 18 19 20 19 19 19 20 20 21 21 20 24 28 25 23 23 22 22 21 21 19 18 18 17 17 17 17 17 18 18 17 17 16 16 15 14 14 12 11 10 9 8 7 7 7 7 7 8 9 9 8 7 7 6 6 6 5 5 6 7 6 6 6 6
7 6 5 5 6 7 8 8 9 10 13 15 10 1 3 0 2 6 9 9 7 6 6 4 2 5 9 10 7 5 7 9 14 16 17 18 16 16 17 18 18 20 21 20 24 26 24 23 22 22 22 21 20 19 18 18 17 17 17 17 17 17 17 16 15 15 14 14 13 13 11 10 10 9 8 7 7 7 6 6 7 8 8 8 7 8 7 7 7 6 6 6 7 7 7 6 6
5 5 5 6 7 7 8 8 9 10 14 17 6 1 2 1 3 6 7 10 8 6 6 6 4 6 11 10 5 6 8 8 11 14 17 18 16 16 18 20 19 19 21 21 22 24 23 22 22 21 20 21 20 19 18 18 18 17 17 18 17 17 16 15 14 13 13 13 12 11 10 10 9 9 8 8 7 6 7 6 7 7 8 8 7 7 6 6 7 7 7 6 6 7 7 7 6
5 6 5 6 7 7 8 9 11 11 13 13 4 1 6 5 2 5 7 10 7 7 6 9 3 5 9 8 4 6 9 8 10 13 16 20 19 19 21 22 20 19 21 21 21 22 23 22 21 20 20 20 19 18 18 18 18 18 17 17 17 16 15 14 13 12 12 12 11 10 9 9 8 8 8 8 8 7 7 7 6 6 7 7 7 6 5 5 6 7 7 6 6 7 7 7 6
6 6 6 7 7 8 10 10 11 11 12 7 6 5 2 5 1 4 7 9 9 9 7 13 10 12 8 5 6 5 7 9 10 14 17 19 19 21 22 21 19 20 20 19 20 21 21 21 20 20 20 20 19 18 18 18 18 18 18 17 16 15 14 14 13 12 11 11 10 9 8 8 8 8 9 9 8 7 7 7 6 5 6 6 6 6 5 5 5 7 7 6 7 7 7 7 6
6 6 6 7 7 9 9 9 11 9 9 3 8 10 7 3 2 3 7 10 10 9 6 14 14 15 10 6 7 5 7 11 12 15 18 19 19 21 23 20 18 20 20 19 20 20 18 19 20 20 21 20 19 18 17 17 17 18 18 17 16 15 14 13 12 11 10 10 9 9 8 8 8 9 10 9 8 7 7 6 6 5 5 5 5 5 4 5 5 6 7 8 8 7 7 6 5
7 6 6 7 7 9 8 10 9 8 7 6 6 4 6 2 4 3 7 10 10 8 4 12 14 9 10 9 7 8 11 15 15 16 18 19 19 20 21 19 18 19 20 20 20 20 19 17 18 20 21 20 19 18 17 17 17 17 18 17 16 15 14 13 12 11 10 10 10 10 9 9 9 9 9 8 7 7 7 6 6 5 5 4 4 4 4 4 5 6 7 8 8 6 6 6 6
6 6 6 7 7 9 8 10 8 9 8 6 3 4 2 2 4 4 5 7 10 7 3 8 8 6 10 10 10 16 18 18 17 19 19 18 17 18 19 18 17 18 18 18 18 18 20 19 17 18 20 18 18 19 18 17 17 17 17 17 16 16 15 14 13 12 12 11 11 11 10 10 9 9 9 8 7 7 7 6 6 5 4 4 4 4 4 5 6 7 9 8 7 6 6 6 6
6 6 7 7 8 10 8 10 9 6 5 5 5 0 3 4 3 3 3 6 12 11 6 8 8 9 7 8 17 23 21 20 20 19 18 15 14 14 17 18 17 16 17 18 18 17 18 19 17 17 18 16 16 18 18 16 17 17 17 18 16 16 16 15 14 13 12 12 11 11 11 11 10 10 9 9 9 8 7 5 5 5 4 4 3 3 3 4 5 7 9 8 6 5 6 6 6
7 5 7 7 8 10 8 12 9 2 3 2 7 5 2 6 6 2 2 7 12 13 5 13 13 14 14 15 22 23 21 21 19 18 16 13 13 11 12 16 17 16 17 17 17 17 18 16 14 16 16 16 17 17 16 15 18 17 16 18 17 17 16 15 15 13 13 13 12 12 13 12 11 11 10 10 11 10 9 6 5 5 3 3 2 2 2 3 5 6 8 8 6 6 5 6 6
7 6 7 8 9 10 12 16 7 4 5 9 8 3 1 5 7 3 2 7 9 12 7 14 16 16 19 20 21 20 19 19 18 17 16 14 13 10 9 12 16 16 16 16 16 14 16 16 14 16 16 17 16 15 14 13 17 17 15 17 17 17 16 14 15 14 13 14 14 13 13 13 12 12 10 10 11 11 9 8 6 6 4 3 2 1 2 3 5 6 7 8 7 6 7 6 6
8 7 7 9 12 13 15 15 7 6 8 10 7 3 3 6 7 4 5 8 10 11 10 10 16 17 18 18 18 18 16 16 16 13 13 14 14 11 8 9 13 15 16 19 18 14 15 16 14 15 16 16 14 14 14 14 17 17 15 16 17 17 15 14 15 13 13 14 15 14 12 11 11 10 9 9 10 10 9 9 8 8 5 4 3 2 2 4 5 5 7 8 8 7 6 8 8
7 8 9 12 14 13 12 9 6 7 8 8 10 7 7 10 5 4 7 8 10 10 13 12 15 18 17 17 17 16 14 12 10 7 2 8 16 14 13 13 13 17 17 18 19 18 17 17 17 16 16 15 13 15 16 14 16 16 14 14 16 16 14 15 15 14 15 15 16 15 10 9 9 7 8 9 8 8 9 10 10 9 7 6 5 4 3 4 5 6 7 9 9 7 6 8 9
7 10 12 14 15 12 10 6 2 4 6 6 10 9 9 9 4 6 10 9 8 4 9 13 17 21 18 17 16 14 12 10 10 9 3 8 12 14 15 17 15 19 20 19 22 22 20 20 20 18 17 16 14 15 16 15 17 17 14 13 15 16 16 16 16 15 16 15 14 14 10 10 10 8 9 9 8 9 10 11 11 10 10 9 7 6 6 5 6 9 8 8 8 6 7 7 5
9 10 12 13 14 13 10 6 1 0 4 7 9 10 9 7 8 10 9 8 3 11 15 5 17 20 17 17 16 14 11 10 10 12 4 13 7 12 12 16 15 17 18 17 21 23 25 25 22 20 18 16 15 15 15 16 17 16 13 13 13 15 17 17 17 14 14 16 16 14 11 11 11 9 11 11 10 11 11 10 10 10 12 11 8 7 7 5 6 10 8 8 8 6 6 5 2
12 10 11 13 13 12 9 7 4 2 7 10 9 10 9 9 11 8 8 9 4 14 19 19 19 17 16 15 14 13 11 11 11 15 12 14 8 13 14 16 16 14 16 14 14 17 22 24 23 23 20 16 16 15 13 12 13 12 9 11 11 12 16 17 17 15 15 17 16 13 11 11 10 9 12 11 9 11 9 7 7 9 12 11 9 8 7 5 6 8 8 7 8 7 6 5 4
12 10 12 13 11 8 8 8 7 7 8 9 10 11 11 12 11 5 7 8 7 9 13 18 16 15 14 13 13 12 10 10 11 13 16 10 15 15 16 14 15 13 15 14 12 12 15 16 18 22 20 19 22 19 15 15 14 12 10 11 11 11 13 14 15 16 16 16 14 13 12 12 13 11 11 9 9 10 7 5 4 6 10 9 8 6 6 6 6 7 6 7 6 7 7 7 6
8 10 13 14 12 8 8 10 10 11 9 9 11 12 13 11 8 6 8 6 7 8 12 14 13 14 13 13 12 11 8 8 9 8 16 12 19 14 18 14 15 15 16 15 13 12 13 13 14 15 14 16 22 22 21 20 18 17 13 12 11 10 11 12 12 12 13 14 13 13 12 12 12 10 9 8 10 11 8 6 3 3 7 8 7 5 5 6 6 7 6 5 6 6 7 8 8
7 10 13 15 13 8 8 12 12 11 10 11 11 12 14 8 5 7 6 5 5 8 13 10 11 13 12 13 10 9 7 6 6 5 12 8 16 11 18 15 15 16 17 15 11 11 12 11 11 11 11 12 12 14 18 16 15 16 13 11 9 8 9 9 9 10 10 11 11 12 12 11 9 9 9 9 9 10 8 6 3 1 4 6 6 7 8 6 4 7 6 5 6 5 6 7 8
8 9 11 12 11 10 12 13 10 9 10 11 11 13 11 7 7 9 7 7 7 13 16 10 9 11 12 13 9 7 6 4 4 2 8 4 15 8 14 14 14 15 14 12 10 11 10 10 12 11 11 10 8 10 12 10 8 10 11 11 10 10 11 11 9 8 9 10 9 11 13 13 12 11 10 9 8 7 7 5 3 2 5 6 8 8 8 5 4 4 5 6 7 6 5 5 7
8 8 9 11 12 12 14 13 10 9 10 10 11 13 8 8 11 9 8 6 8 14 16 9 8 9 11 12 8 6 5 5 9 10 11 3 20 11 11 12 14 14 12 12 14 12 9 14 15 12 10 9 8 9 9 8 7 6 7 10 11 13 14 15 13 10 12 13 11 11 11 12 13 10 9 10 8 7 7 6 6 5 7 7 8 10 8 7 6 3 3 5 7 6 6 5 5
8 9 9 10 10 12 14 14 12 12 10 11 10 9 7 12 11 7 8 7 8 12 15 12 11 9 9 10 6 4 6 8 10 11 8 10 21 12 9 13 15 14 12 15 15 12 14 17 14 11 11 10 8 8 8 8 7 6 6 8 10 9 9 13 15 12 13 12 9 9 8 8 9 8 7 8 8 8 7 7 7 7 8 6 9 12 10 9 7 4 5 5 6 6 5 5 5
8 10 9 7 8 10 14 13 12 13 9 11 9 7 6 9 10 10 6 8 8 9 13 12 10 11 10 11 6 5 7 9 13 19 21 20 18 11 10 14 15 13 14 17 15 12 15 15 13 12 12 10 10 9 9 9 7 7 7 9 9 6 6 7 8 8 9 8 6 7 7 7 6 6 6 6 7 8 7 7 8 8 7 5 9 13 11 10 7 6 8 7 8 7 4 4 4
8 8 8 7 9 10 10 12 12 11 8 11 8 7 7 9 11 12 6 7 8 10 9 12 12 15 12 10 9 9 9 11 15 20 25 23 18 14 13 15 16 16 17 19 16 14 15 14 13 13 12 11 10 10 10 9 8 8 8 7 6 5 6 5 7 9 8 7 7 7 7 7 6 5 5 6 6 6 5 6 8 9 7 5 9 14 12 11 9 9 9 7 9 8 5 4 2
7 6 7 8 10 6 9 10 12 11 8 12 10 8 8 7 10 12 6 7 9 9 6 16 16 15 12 6 5 8 10 12 14 17 20 18 17 17 16 17 16 20 20 19 17 16 15 14 13 12 12 11 10 10 9 10 9 8 8 6 5 6 6 5 7 11 11 9 8 7 7 7 6 5 5 5 4 3 3 5 7 8 7 7 11 14 13 11 10 10 9 9 9 8 6 4 3
7 7 7 9 12 5 7 10 11 11 11 11 11 11 11 4 11 10 8 8 9 10 6 17 16 10 10 6 7 8 10 11 11 15 18 17 17 18 19 17 17 22 21 20 17 16 15 14 14 12 12 11 11 11 9 9 8 7 8 6 6 7 6 6 9 12 12 10 9 9 8 7 7 6 5 5 4 3 3 3 5 6 7 8 11 13 12 10 10 11 10 9 8 7 5 3 2
4 5 6 7 10 8 8 9 10 10 11 9 9 10 13 6 11 10 11 7 7 10 6 14 16 13 11 9 11 11 12 11 11 16 18 18 19 19 19 16 16 21 20 20 18 16 16 14 14 13 12 12 12 11 9 8 8 6 7 6 7 7 7 7 9 10 9 9 9 9 9 9 8 7 5 3 2 2 1 3 4 4 6 8 10 11 11 11 11 12 11 10 9 7 5 3 3
12 10 6 6 7 8 8 4 8 8 8 9 9 9 13 10 11 11 8 5 6 9 7 11 15 15 15 13 13 13 15 13 13 21 22 21 20 19 20 18 16 21 21 20 19 16 16 15 15 14 13 13 12 12 9 8 8 6 7 7 6 7 9 9 9 10 10 10 9 8 8 7 7 6 4 2 1 2 3 3 4 3 4 7 10 10 12 12 12 13 12 11 10 7 6 5 3
12 12 7 7 6 7 8 3 9 6 5 8 9 11 14 11 9 9 7 7 9 8 7 5 10 13 15 15 16 16 15 15 16 23 24 23 21 19 21 20 17 20 20 20 19 18 18 17 17 16 14 14 12 11 9 8 9 7 7 8 7 6 7 9 11 11 10 9 8 8 8 6 6 5 4 4 2 3 4 4 5 4 3 4 7 9 13 13 13 14 13 12 10 7 7 6 5
10 10 8 5 6 7 4 3 9 7 3 5 6 11 12 9 10 10 6 6 7 7 7 6 7 9 8 9 16 17 13 13 14 18 22 22 21 21 21 22 21 19 19 20 20 20 19 19 18 17 16 15 12 10 8 7 8 7 6 7 8 9 10 12 13 11 10 9 8 8 8 7 7 5 5 5 4 5 5 5 5 4 4 4 4 6 12 12 10 12 12 11 10 8 8 8 8
8 7 7 5 7 5 5 7 5 6 3 5 7 9 10 8 11 9 4 6 7 5 5 9 8 7 7 6 13 17 12 12 12 12 17 18 20 23 18 18 22 21 19 20 20 21 21 20 20 19 17 15 12 11 9 8 9 9 8 8 11 14 15 16 15 12 11 10 9 8 8 8 7 6 6 6 7 7 6 5 5 5 4 4 5 6 8 11 10 10 11 11 10 8 8 8 10
7 6 7 6 7 8 2 5 3 1 1 4 8 7 8 9 8 6 7 10 7 3 7 12 9 4 6 8 7 16 14 12 12 10 13 12 16 22 17 16 20 21 21 20 20 21 21 21 21 20 19 17 14 13 12 11 10 11 11 11 13 15 14 15 14 12 10 9 9 9 9 9 8 8 9 9 8 6 6 8 7 7 6 5 6 8 8 8 8 8 9 9 8 7 7 8 10
7 7 9 9 9 9 5 4 4 3 3 3 9 8 6 10 7 6 10 10 7 6 12 12 7 5 7 6 3 13 15 12 12 12 11 10 13 18 18 17 18 20 23 22 21 22 21 21 22 21 21 19 18 16 14 15 14 13 12 12 13 14 12 13 12 10 8 8 9 9 9 10 9 9 10 10 8 7 8 9 8 8 8 6 5 7 8 7 6 6 5 6 6 5 5 7 9
7 9 11 13 13 12 7 3 6 1 5 5 7 7 5 8 8 8 11 8 8 9 11 8 6 8 8 6 4 7 13 12 11 10 9 8 11 16 19 19 17 20 25 25 22 23 22 22 23 23 23 22 21 19 17 17 17 15 14 14 15 14 11 12 12 10 9 10 9 9 10 10 10 10 10 10 10 9 9 9 9 8 7 7 8 9 9 6 6 8 6 4 3 3 4 6 7
6 4 6 12 12 13 11 5 2 3 5 4 7 6 5 6 8 9 12 11 11 10 9 8 8 8 7 7 6 4 9 11 8 8 8 7 9 12 16 19 19 19 24 24 23 24 26 25 26 26 24 25 23 21 20 19 18 17 16 16 15 14 13 13 12 11 11 10 9 9 10 10 10 10 10 10 10 10 10 10 10 9 7 8 10 11 11 9 8 9 7 7 7 5 4 5 5
5 2 5 10 10 11 12 9 6 6 6 3 7 8 6 5 7 9 12 10 12 10 10 9 9 10 10 7 7 6 8 11 10 11 12 11 12 14 16 20 23 23 24 23 25 27 28 27 28 28 26 26 26 23 22 21 20 20 18 16 15 14 15 16 13 12 12 10 10 9 10 10 9 10 10 11 11 10 10 10 10 10 10 10 10 11 10 10 10 9 8 10 11 10 9 7 6
5 3 6 9 9 11 11 9 8 6 6 6 7 8 6 6 7 8 12 8 10 10 11 10 9 9 9 8 8 8 7 9 10 13 13 14 16 19 19 21 26 27 27 27 30 31 28 29 28 29 27 27 27 25 24 22 21 21 19 16 16 17 17 16 14 13 13 11 11 10 10 10 10 10 10 11 11 11 11 10 10 11 13 13 12 11 11 11 10 10 9 10 10 11 12 11 9
5 4 7 9 10 10 9 8 7 5 5 7 7 7 6 6 6 7 9 8 8 8 8 9 8 5 2 2 3 1 2 0 3 5 7 10 17 23 26 25 26 29 31 32 31 30 26 31 30 29 29 28 28 27 25 24 22 21 20 17 17 21 18 16 16 14 13 12 11 11 11 10 10 10 10 10 10 10 10 10 10 11 13 12 12 11 12 11 11 11 10 10 10 10 10 11 12
4 3 6 8 9 9 7 5 6 5 6 8 11 12 9 6 6 5 6 5 8 7 8 9 9 5 2 3 1 2 1 2 2 2 3 4 5 12 20 24 28 32 34 34 31 26 24 28 31 30 30 29 30 29 26 25 24 22 20 19 19 22 20 18 18 16 14 13 12 12 11 11 10 10 10 9 9 9 10 10 10 11 11 11 11 11 11 11 11 11 10 10 10 10 10 9 11
5 4 6 7 6 5 5 4 5 6 6 7 11 13 11 8 5 2 3 2 7 6 7 7 9 8 5 4 2 2 3 2 2 4 5 6 4 3 6 13 22 29 30 31 32 29 26 27 32 32 30 31 31 30 28 25 25 24 21 19 20 22 21 20 20 17 15 14 13 13 13 12 11 9 9 9 8 9 10 10 10 10 10 10 10 10 10 10 10 10 10 11 10 10 10 10 11
6 6 5 6 5 4 5 5 5 7 6 5 7 8 8 7 4 4 1 2 7 5 2 7 9 9 8 6 4 5 4 1 3 5 5 4 2 3 7 9 12 20 25 27 30 32 28 27 31 33 30 32 32 31 30 27 25 24 22 20 20 22 21 20 19 17 16 15 14 14 15 14 13 11 9 9 8 8 8 9 9 9 10 10 10 10 11 10 10 10 10 10 11 11 10 11 12
6 6 5 5 5 5 6 5 5 6 6 6 5 5 5 5 5 6 5 5 7 6 6 8 8 8 7 6 5 5 4 3 5 6 5 4 3 2 5 10 13 15 21 21 22 24 20 18 22 30 30 31 33 32 30 28 25 24 23 22 20 21 21 19 19 18 16 16 15 15 15 15 14 13 12 10 9 8 7 7 7 8 9 10 10 10 10 9 9 10 10 9 10 10 9 11 11
6 6 6 5 4 5 5 4 5 5 5 5 5 4 3 3 4 4 4 7 6 5 7 7 8 7 5 4 4 6 6 6 5 5 6 5 4 5 4 6 6 8 15 13 9 11 10 13 15 18 27 29 30 32 30 27 25 24 23 23 21 21 21 19 18 18 16 16 16 15 14 15 15 14 14 12 10 9 8 8 8 8 8 8 9 10 10 9 9 9 9 9 9 8 9 10 10
4 5 6 4 4 5 5 5 6 5 5 5 3 3 2 2 3 2 7 9 6 7 8 7 7 7 6 4 4 5 7 6 5 6 7 6 5 5 5 5 8 10 9 6 6 6 13 17 17 15 20 28 27 28 29 27 25 23 24 24 22 21 21 19 18 19 17 15 16 15 13 13 15 15 15 14 12 12 11 9 8 8 8 8 9 9 9 9 8 7 8 8 8 8 8 7 7
2 3 4 4 5 6 5 5 5 5 6 5 4 5 4 3 5 4 7 7 8 9 9 9 9 8 7 5 4 6 7 6 6 6 6 6 6 5 5 9 12 10 7 6 6 9 16 21 17 19 13 19 23 25 26 26 24 23 23 24 23 22 21 20 17 19 19 15 15 16 12 11 14 15 16 15 13 12 11 10 10 9 9 8 9 8 8 9 8 7 7 7 7 6 6 6 5
5 4 2 2 5 6 4 4 5 5 6 5 4 6 7 6 4 6 9 9 9 10 10 10 9 8 7 6 6 7 7 7 7 6 6 7 7 7 8 8 9 6 6 4 4 9 12 15 14 15 12 6 12 18 22 22 22 22 22 23 23 21 21 20 17 17 19 16 14 15 14 11 12 14 16 15 14 13 12 11 10 10 9 9 9 9 9 10 9 8 8 7 7 6 6 6 6
9 7 4 3 4 5 4 4 4 5 5 5 6 8 8 6 3 5 11 11 9 10 10 10 11 10 8 7 7 8 7 7 7 6 6 6 6 9 10 7 9 7 6 5 2 5 7 9 11 13 13 8 7 11 16 19 18 18 20 20 21 19 18 18 16 15 18 18 15 14 15 14 12 13 15 16 15 14 13 13 12 11 11 10 10 10 10 10 10 9 9 8 8 7 6 6 5
10 9 6 5 4 4 4 4 3 4 6 5 6 8 5 2 3 5 9 10 10 11 10 10 12 10 9 8 7 7 7 6 6 7 7 7 7 10 11 10 11 9 8 8 3 3 6 7 8 12 15 13 9 8 11 16 16 14 16 17 18 17 15 15 13 13 16 18 17 14 14 16 15 14 15 16 16 16 15 15 14 13 12 12 11 11 11 11 11 11 10 9 8 8 7 7 6
6 6 6 5 4 4 5 5 4 5 6 5 5 6 2 2 1 2 3 6 10 10 7 7 9 9 9 10 7 7 7 6 7 7 7 8 8 9 10 10 11 10 11 10 6 5 8 7 7 11 11 10 9 8 9 12 12 12 14 15 14 13 13 13 12 11 12 14 17 17 15 15 16 16 16 17 17 17 17 16 16 15 15 14 14 13 13 12 12 11 11 10 10 9 9 8 7
6 5 5 5 5 3 3 4 4 5 5 5 6 5 1 1 1 1 2 2 5 7 7 6 8 10 10 10 8 7 7 6 7 7 7 8 8 10 11 10 10 10 11 12 11 8 8 9 11 15 13 9 10 10 9 8 7 9 12 13 13 11 10 13 14 13 14 15 16 17 15 14 16 16 16 18 17 17 16 16 16 16 17 16 16 16 15 14 13 12 12 12 11 11 10 10 10
Wind_Direction
258 276 288 284 275 277 272 243 248 215 222 255 252 262 252 253 277 134 155 125 295 219 83 66 347 344 310 1 63 59 40 41 37 55 87 97 104 109 120 124 128 131 132 141 146 147 147 145 145 144 143 143 142 142 144 147 151 159 163 163 163 163 162 159 153 149 145 137 137 139 135 132 130 131 131 128 125 120 121 122 117 111 107 106 106 102 99 98 96 93 91 91 91 88 86 92 94
269 275 266 262 261 265 269 216 250 249 223 245 241 246 252 252 325 288 256 257 79 85 59 66 82 3 343 333 42 79 55 55 73 86 97 104 105 113 124 127 128 129 134 142 145 147 147 147 146 145 145 144 143 143 144 147 151 156 159 161 165 166 163 160 153 150 145 137 139 139 138 136 132 132 128 125 121 116 112 110 110 110 107 106 105 101 98 99 98 95 96 94 93 91 87 93 94
269 277 263 245 239 240 273 245 239 261 243 248 249 233 238 237 213 247 265 13 68 75 25 67 66 18 5 311 359 80 72 65 84 100 109 108 110 122 127 126 127 128 133 139 143 147 148 149 148 146 147 144 144 144 145 147 149 151 154 159 162 163 162 159 153 151 145 139 140 140 139 136 133 128 122 119 115 114 110 106 107 108 106 104 104 101 101 102 101 100 101 98 97 94 90 89 89
263 274 269 253 238 223 245 253 233 255 255 255 264 229 202 238 200 67 58 53 56 62 294 75 100 46 29 0 27 74 79 73 87 103 115 114 126 132 130 126 126 128 132 136 140 147 150 150 149 148 147 145 145 145 146 147 147 148 150 155 159 160 159 157 154 150 145 141 142 143 142 137 133 127 122 121 117 114 111 109 108 107 107 110 110 110 112 110 104 104 106 105 102 95 90 89 90
260 264 261 254 257 247 242 254 240 245 251 254 271 273 51 343 18 48 69 55 26 347 260 175 145 81 58 23 19 59 66 86 92 95 110 118 131 132 130 129 128 130 133 136 138 147 151 151 151 149 148 146 146 146 146 146 147 148 148 152 156 157 156 154 152 149 145 144 144 143 141 138 135 130 127 126 123 119 114 111 111 113 115 118 123 125 128 124 113 110 114 115 109 100 96 96 95
254 257 243 242 269 304 275 252 247 243 245 254 268 293 38 15 26 27 67 45 275 231 240 184 170 101 89 53 49 38 24 64 90 95 115 125 131 131 132 131 131 131 133 134 137 149 152 153 153 150 149 148 147 147 146 147 147 147 147 149 152 152 152 152 150 148 146 144 144 143 141 139 136 132 129 128 127 123 117 112 112 120 124 126 130 133 137 135 128 121 116 114 112 108 105 104 104
250 258 223 225 250 271 258 250 251 250 242 243 255 268 58 81 63 337 178 176 214 197 221 186 171 118 102 93 75 41 28 47 89 106 122 129 131 133 134 132 130 129 133 133 138 151 153 154 153 151 151 149 149 148 149 148 146 146 145 146 147 148 147 148 147 147 146 144 144 145 144 141 137 132 130 128 127 124 118 112 112 123 132 135 135 139 141 138 137 130 121 121 121 113 109 109 112
248 262 235 235 240 228 234 250 251 258 257 246 260 301 55 70 53 313 283 191 193 189 197 183 183 146 87 83 87 52 47 60 95 113 125 130 132 134 132 129 128 128 131 132 142 152 153 155 153 152 152 151 151 150 151 147 144 145 144 144 144 144 144 144 145 146 146 146 146 147 147 144 139 134 131 129 129 129 121 115 117 126 135 137 135 137 138 139 140 137 128 125 123 115 115 112 113
240 244 250 254 247 245 241 249 245 251 262 254 257 235 101 129 7 299 295 289 222 204 191 186 201 150 100 86 92 68 61 79 106 118 129 132 132 132 129 124 122 125 129 133 146 152 152 156 154 154 155 154 153 152 152 147 145 145 144 144 144 143 143 143 146 147 148 148 148 149 151 148 144 139 137 136 137 133 122 117 120 125 133 134 131 128 129 135 135 135 124 117 120 120 119 107 108
230 226 242 260 248 257 249 249 249 243 251 249 250 189 98 276 234 259 272 270 246 227 179 150 249 159 128 99 92 82 86 109 119 129 135 132 126 116 114 117 119 125 130 133 144 150 152 155 155 156 157 156 155 155 153 149 147 147 148 147 146 146 144 146 148 149 150 149 150 152 153 150 148 146 146 144 143 140 133 127 125 125 128 131 132 130 130 130 127 126 119 119 123 122 118 104 99
236 223 231 262 252 255 252 253 253 240 242 239 224 36 281 195 253 265 267 269 265 241 166 138 235 173 126 99 92 112 120 128 129 143 133 120 116 108 115 125 127 130 132 134 141 150 152 155 157 158 159 158 157 156 155 153 152 151 151 150 149 150 149 150 150 151 150 149 153 155 155 152 153 155 151 150 153 148 142 140 133 127 128 133 134 134 137 134 130 129 125 127 123 118 117 107 95
247 236 221 243 252 254 258 260 257 254 253 238 178 287 242 157 192 267 262 266 263 246 181 146 138 107 106 93 108 120 133 149 144 144 117 108 121 125 127 126 126 129 132 134 140 148 153 156 157 159 161 161 160 159 159 157 156 155 155 154 153 153 152 152 152 152 151 153 157 156 158 157 161 163 156 154 156 150 142 146 141 132 133 134 131 127 132 141 143 140 136 134 128 125 123 117 101
243 251 240 242 252 258 264 265 266 272 274 264 94 83 141 140 175 284 281 274 262 259 191 155 114 95 109 97 115 135 149 160 154 139 111 109 127 129 128 123 124 131 133 134 138 145 152 157 157 161 163 164 163 161 163 162 161 160 158 158 158 158 154 154 155 155 156 158 159 159 161 162 169 169 163 159 157 151 144 146 146 139 137 134 129 120 127 151 159 154 148 142 139 139 135 129 107
240 251 259 262 262 263 268 266 274 285 288 334 97 118 118 167 250 298 291 282 264 266 221 162 125 106 127 127 130 162 155 156 158 135 113 116 126 126 126 125 127 130 135 139 140 142 147 157 161 164 165 165 165 164 166 167 166 164 163 163 162 162 159 158 159 158 161 162 161 161 159 159 165 166 165 162 153 149 145 146 149 146 140 134 128 118 128 159 170 164 156 147 147 152 148 144 117
242 254 258 266 271 269 267 264 272 277 280 62 97 158 121 195 253 257 263 272 266 270 251 146 129 122 150 161 159 169 157 156 155 128 115 119 122 123 123 125 127 128 138 141 140 144 148 157 165 167 167 167 165 165 169 171 172 170 168 167 167 167 165 163 162 162 165 168 164 158 159 155 154 157 159 156 149 148 146 147 153 154 148 140 137 127 127 155 171 164 158 153 157 161 153 150 128
242 263 265 259 263 262 262 266 260 253 260 95 117 264 94 225 240 245 253 261 269 267 227 134 126 133 163 176 155 155 155 151 142 121 117 118 119 124 125 127 126 127 134 138 140 149 154 158 164 165 166 167 167 170 171 173 176 175 173 171 172 171 167 166 166 170 169 168 166 158 156 151 150 155 156 155 154 153 151 153 161 167 163 153 152 146 134 148 168 167 162 161 164 161 142 141 130
237 247 259 257 253 253 256 262 260 268 270 121 134 48 40 306 263 236 249 251 266 257 190 115 93 93 124 153 137 142 146 143 139 125 121 121 123 129 135 130 124 129 130 136 145 149 157 160 159 159 161 164 169 175 171 172 178 179 178 175 176 176 172 171 173 176 173 170 169 162 154 152 156 160 159 163 164 159 159 167 171 176 175 164 159 154 146 152 168 172 168 167 172 171 149 135 128
239 234 242 251 250 252 254 252 260 320 279 78 79 71 23 302 298 273 230 242 264 264 191 105 93 90 93 112 124 135 140 140 142 136 132 137 138 136 143 135 131 138 131 136 151 153 154 154 155 157 162 166 169 175 172 174 178 176 181 180 180 181 176 176 179 182 182 177 171 169 167 159 156 163 166 167 169 166 168 183 186 184 182 172 160 152 164 173 177 180 181 183 187 190 177 152 138
232 242 235 243 250 256 258 255 265 44 326 343 26 44 292 289 299 309 261 250 255 261 214 124 108 101 102 111 119 130 139 141 148 149 145 149 149 143 139 135 137 137 133 143 153 158 153 146 151 155 158 165 167 173 173 177 178 174 180 182 182 183 176 179 186 190 193 187 178 180 185 177 164 168 173 169 171 171 174 188 194 192 192 182 167 159 187 186 186 192 196 198 197 206 206 190 167
221 240 244 242 244 254 264 270 302 352 320 324 327 318 310 277 278 281 273 263 247 248 232 160 128 122 118 119 126 135 145 149 148 146 152 154 144 141 133 132 139 133 140 152 153 161 158 148 150 157 161 163 167 172 171 175 178 177 179 182 182 179 176 183 188 192 198 192 186 190 198 197 183 176 177 171 171 177 181 188 197 202 199 196 201 202 194 185 193 204 205 205 201 204 213 213 209
216 225 243 251 252 263 279 300 333 314 298 302 299 307 291 273 279 286 275 268 249 232 232 208 143 131 129 127 136 142 147 146 129 103 177 175 142 145 155 154 156 146 149 155 158 166 162 155 156 164 167 165 174 175 174 180 182 181 180 184 182 174 177 189 188 187 197 199 195 195 194 194 197 194 184 171 171 183 188 189 201 208 204 210 218 213 222 212 200 208 209 205 199 196 215 234 232
230 233 243 258 271 286 302 318 326 290 294 295 289 280 273 279 287 267 259 258 264 277 261 223 151 134 135 135 136 134 135 130 114 92 321 248 152 145 158 154 157 153 154 158 161 166 163 162 162 163 165 166 177 179 180 184 183 184 182 184 184 178 184 200 202 195 200 207 207 203 190 181 191 198 186 179 179 184 190 193 202 207 204 208 207 204 236 250 198 200 208 202 200 202 226 247 243
238 245 246 256 270 277 288 310 352 22 280 271 267 263 271 286 271 254 245 248 278 35 19 65 131 130 131 135 133 131 136 130 120 120 199 260 181 143 156 149 152 153 153 158 158 160 160 162 163 162 163 166 171 176 181 180 180 185 185 187 185 180 186 201 208 204 205 213 215 210 202 191 190 190 189 190 186 185 195 203 205 206 203 202 197 193 221 246 198 194 203 201 205 208 218 228 221
236 246 253 254 260 262 264 285 300 244 253 259 259 264 267 269 264 242 226 237 131 71 55 72 103 117 122 127 126 127 134 137 141 144 173 257 237 163 163 152 155 153 145 152 153 154 154 158 162 157 158 164 165 170 178 177 182 187 188 195 192 182 183 188 194 198 204 213 216 207 201 199 196 192 193 194 183 178 186 198 201 204 203 200 194 181 188 217 206 194 198 200 205 204 204 207 204
229 240 260 266 267 269 265 265 265 253 248 249 250 259 257 253 261 247 230 221 141 114 100 96 102 113 122 121 117 118 126 146 155 154 156 223 247 184 156 154 155 148 143 150 160 162 153 153 155 150 153 162 162 164 168 171 180 184 183 195 202 200 193 185 188 196 199 204 207 203 201 198 196 190 187 186 171 162 163 184 181 190 194 185 179 174 179 200 200 192 196 198 201 206 203 201 200
227 237 250 259 257 249 255 256 249 247 244 240 240 248 249 244 256 255 233 200 150 151 136 124 122 125 125 116 115 119 132 160 151 153 145 178 244 190 145 160 161 150 151 160 175 175 157 149 145 141 145 150 156 161 160 164 173 179 182 185 188 197 196 183 184 193 193 192 189 195 206 207 201 187 174 171 165 156 158 174 140 152 179 163 158 166 189 191 180 187 193 194 200 212 209 200 199
249 255 249 250 257 250 246 248 239 235 233 237 237 242 243 221 228 245 203 156 147 138 130 134 134 129 119 111 112 117 138 165 139 168 136 150 254 198 144 166 162 151 156 165 169 151 143 144 137 128 128 127 136 149 148 151 163 169 170 172 174 180 188 184 187 189 187 190 183 188 203 210 201 180 176 175 167 155 147 153 133 169 199 178 179 174 181 178 168 191 186 192 206 204 210 199 194
255 269 264 255 263 261 253 250 238 235 231 229 238 246 238 189 215 234 171 153 172 133 121 131 141 127 116 117 117 115 136 135 98 34 71 66 269 222 151 166 152 144 153 153 137 133 142 136 122 111 122 126 96 108 127 128 143 151 151 160 161 158 172 183 193 188 179 187 186 190 197 197 189 181 187 181 171 158 142 146 153 225 243 229 223 190 174 164 158 199 188 197 211 198 211 204 180
256 257 264 260 254 245 244 244 230 237 232 205 231 251 230 207 229 212 147 175 196 136 124 150 168 136 120 120 120 127 127 82 64 43 51 293 262 241 158 151 136 141 148 138 131 134 122 108 110 105 118 127 87 89 106 104 110 110 126 141 141 148 161 170 175 175 178 185 185 188 191 189 186 180 180 170 163 162 151 165 168 196 229 230 224 201 181 167 161 187 194 193 203 196 210 211 179
253 244 249 255 253 238 225 226 219 232 229 187 218 250 215 219 214 153 135 185 201 147 140 168 174 145 126 109 99 141 117 85 82 91 121 218 249 239 152 136 139 150 144 132 133 126 108 105 110 110 115 114 94 97 91 88 98 87 100 106 110 130 145 157 166 170 177 179 177 181 171 169 179 174 170 164 164 164 159 182 186 192 211 211 206 200 186 173 163 167 179 179 187 189 191 190 182
246 239 243 241 257 244 206 201 210 222 208 169 209 251 232 219 161 133 166 183 209 194 160 164 158 134 130 117 129 180 130 124 136 149 176 201 224 215 152 149 155 152 137 134 137 122 115 117 116 116 120 112 100 103 91 89 93 78 84 85 84 96 100 118 134 147 163 157 156 171 151 142 158 163 154 145 153 160 170 195 193 191 201 195 193 192 180 172 170 171 174 172 178 179 172 180 182
234 233 236 221 251 249 178 173 200 211 178 158 212 256 249 234 154 144 191 188 211 230 165 135 120 109 118 129 154 171 141 152 162 171 193 198 197 188 166 175 167 148 140 140 140 127 122 127 123 119 118 112 105 101 93 93 91 75 80 82 80 101 107 90 81 93 106 114 135 156 149 141 146 148 133 129 139 152 183 191 178 183 189 177 182 182 171 168 175 178 176 164 162 163 162 171 159
215 230 241 226 241 226 145 172 195 201 190 176 205 247 255 231 156 140 169 211 211 231 174 125 115 103 110 121 158 161 140 156 171 181 194 185 180 181 178 188 165 146 146 144 144 135 129 131 128 122 115 113 107 102 97 93 89 81 88 87 77 93 99 94 100 94 81 84 105 121 131 137 137 136 133 132 131 145 195 185 168 175 178 178 179 174 166 166 175 178 175 163 157 160 165 154 129
203 215 238 240 244 219 155 181 185 203 221 199 190 230 258 142 119 137 165 215 220 225 193 122 122 125 128 147 178 172 149 159 175 176 179 173 178 182 182 187 157 144 149 146 145 138 133 134 131 128 123 120 113 108 102 98 98 87 86 80 77 91 84 73 92 91 78 72 81 90 97 102 105 110 124 135 138 155 193 181 169 168 167 173 172 170 169 167 175 177 169 162 156 156 159 140 112
303 243 223 235 247 235 208 182 167 198 220 227 202 218 249 162 137 189 184 198 234 234 207 130 138 155 156 175 183 178 162 167 178 169 174 176 182 181 176 184 160 147 150 145 145 141 138 139 136 134 128 127 123 116 109 108 109 93 93 93 83 89 83 70 73 81 83 77 73 76 82 85 87 91 96 104 141 154 148 161 168 169 169 175 172 171 176 175 178 176 166 161 150 140 159 161 133
334 301 245 238 255 240 239 170 142 188 201 220 229 224 240 210 181 206 189 179 224 244 231 148 150 161 170 184 181 175 167 173 177 169 174 177 183 180 168 182 172 153 152 145 146 149 145 144 141 140 137 134 131 128 127 127 124 111 109 104 83 78 82 80 77 82 89 85 80 79 80 85 86 91 96 72 72 79 75 122 139 139 156 177 183 185 187 183 177 174 170 170 161 147 167 179 187
324 313 280 239 248 238 247 190 139 179 225 211 228 237 235 227 220 214 186 193 204 233 262 185 167 175 181 183 176 171 166 172 173 166 171 173 180 180 169 177 170 153 154 150 154 157 153 153 146 145 145 139 140 143 147 144 136 127 116 111 100 94 106 105 93 87 86 81 79 81 80 87 90 89 98 99 106 96 82 92 112 114 91 129 177 198 203 192 178 180 178 177 182 185 191 209 242
312 313 310 275 254 238 232 182 145 149 250 256 255 255 242 226 237 238 197 205 212 209 263 259 208 207 215 190 168 166 163 168 169 161 168 175 177 178 174 173 164 155 157 160 166 164 159 157 151 150 151 147 150 149 143 129 122 122 122 126 110 87 97 109 100 90 88 84 76 79 81 83 87 88 93 96 101 105 96 73 85 118 110 105 136 187 208 202 184 183 183 183 193 201 202 212 220
297 293 295 295 276 257 88 84 136 144 177 258 266 261 260 232 227 248 225 225 241 200 239 268 240 214 242 229 162 160 165 164 165 162 169 179 176 172 174 169 162 158 162 171 177 171 166 161 154 155 155 153 152 143 134 114 104 108 103 105 102 88 88 97 98 92 90 88 82 80 84 82 82 86 94 98 90 92 98 87 86 104 113 121 125 138 186 202 198 195 195 197 201 207 212 212 206
274 279 273 271 262 254 136 114 172 181 140 256 276 276 292 279 237 250 253 229 230 191 225 256 258 205 220 248 172 157 165 160 163 171 172 178 171 167 169 162 156 155 165 186 191 178 172 166 159 159 159 157 150 141 142 134 118 109 99 98 103 99 94 93 93 91 88 88 85 81 78 80 78 70 77 89 87 80 81 91 100 99 104 124 131 132 147 174 193 199 201 205 209 212 213 211 211
250 248 255 266 263 262 269 124 115 349 318 281 288 286 286 280 246 232 254 227 191 209 228 234 244 226 212 239 183 153 158 156 167 177 173 167 162 169 172 166 160 160 173 196 200 186 179 171 166 163 161 159 152 147 149 145 134 121 112 107 102 101 103 102 100 100 101 94 87 85 80 80 83 76 75 82 84 82 74 78 93 99 105 109 118 138 139 139 157 165 179 202 209 209 204 208 217
252 233 237 255 270 282 287 116 113 276 273 229 245 266 250 248 230 217 243 224 183 222 237 222 223 240 221 202 206 168 152 154 171 170 160 157 162 170 172 169 167 168 184 202 205 194 184 173 168 165 164 161 155 154 155 148 140 134 129 122 119 124 131 126 122 123 117 105 94 91 88 85 87 86 83 83 85 88 80 73 81 88 89 76 74 101 108 99 121 135 141 160 172 190 190 190 202
262 260 256 253 261 279 277 258 228 236 259 211 200 244 258 243 239 236 241 216 192 217 233 227 224 235 237 209 209 192 141 145 165 158 154 169 181 178 168 171 176 177 189 205 215 204 187 174 169 166 165 161 157 157 157 151 145 144 142 138 140 146 139 127 123 122 116 112 108 100 95 92 91 89 87 86 87 88 84 77 77 84 89 77 69 79 81 66 77 98 99 98 90 85 119 148 171
257 340 302 266 252 261 262 258 255 244 261 233 194 234 264 260 259 269 264 214 178 203 221 227 225 210 217 211 202 211 170 160 168 166 170 182 196 194 178 175 183 187 189 205 228 219 189 175 170 165 165 163 160 160 159 154 152 153 152 150 152 145 129 124 125 126 125 123 120 113 105 99 94 94 92 90 90 91 91 86 80 83 91 93 85 80 81 73 73 75 72 79 82 80 85 102 131
237 268 276 271 263 259 255 248 244 247 265 255 219 230 249 258 255 263 266 221 174 206 213 213 226 209 203 202 202 209 186 177 181 175 180 185 189 193 190 184 185 190 190 200 228 228 193 174 171 166 165 165 162 162 160 157 158 158 156 157 151 136 130 133 135 134 134 135 129 121 114 105 101 100 95 92 91 89 89 87 82 80 85 93 94 90 92 91 87 83 76 75 77 78 80 85 91
234 285 289 281 275 266 260 257 256 252 260 264 255 246 246 257 254 244 250 225 194 218 208 195 209 207 180 204 220 221 82 254 211 181 183 179 178 185 193 195 193 198 198 195 216 229 200 175 170 167 165 166 165 165 162 159 163 162 159 162 147 135 140 146 142 141 142 140 131 123 118 113 111 106 101 98 95 92 90 87 85 83 84 89 93 95 98 99 97 96 94 88 82 79 79 83 83
216 248 271 264 261 259 257 265 276 267 250 253 254 252 251 259 261 260 265 219 186 206 218 198 186 174 101 50 5 350 25 355 355 358 26 80 155 184 188 187 188 195 198 193 200 219 210 181 171 169 166 167 167 166 164 162 166 165 163 164 149 142 152 152 145 148 150 145 139 136 131 126 125 120 116 112 108 106 102 95 93 91 92 93 94 97 98 98 98 98 99 97 93 86 81 87 91
232 241 259 262 250 250 258 254 253 254 249 248 253 251 246 250 255 278 351 84 155 202 233 184 151 150 141 113 111 65 53 33 20 21 37 50 27 305 226 196 185 186 188 189 191 199 208 195 176 168 167 168 168 167 166 165 167 167 166 167 155 151 158 154 150 155 155 154 153 147 141 136 136 135 131 127 123 119 113 107 105 104 103 102 102 106 107 104 103 102 99 95 95 93 89 89 91
251 254 252 263 254 241 255 247 237 247 255 263 280 276 251 245 238 214 247 133 165 190 162 139 140 142 136 127 116 86 70 44 46 47 42 45 40 302 277 253 213 190 182 188 190 189 203 207 182 168 167 168 167 167 168 167 169 168 166 168 160 156 159 156 156 162 161 161 160 154 150 148 149 150 149 142 135 128 121 117 117 118 117 114 111 111 110 108 106 103 101 97 94 92 88 86 84
226 245 238 241 246 244 246 247 246 252 256 251 264 287 271 252 247 236 222 168 171 162 124 137 143 128 129 143 144 133 119 72 57 56 47 33 7 305 264 258 245 206 184 188 189 181 198 225 197 172 167 169 167 167 169 168 169 169 167 168 164 159 161 160 161 167 167 166 167 163 161 159 159 161 161 158 151 142 135 132 130 127 125 121 121 121 116 111 109 106 104 100 97 95 94 93 92
217 236 250 235 233 248 251 258 264 270 283 268 240 248 269 256 263 257 140 124 141 146 129 126 117 120 152 171 143 125 104 74 60 58 52 42 10 354 324 280 260 185 175 180 164 155 189 246 247 192 167 167 168 166 168 168 168 169 167 168 167 164 165 166 166 170 172 173 172 170 170 168 166 167 167 166 161 155 156 154 146 138 135 134 132 130 124 118 119 120 115 110 106 104 97 90 91
223 214 245 240 223 237 251 271 282 294 302 286 244 239 258 183 235 231 128 135 162 161 142 134 141 159 168 148 120 105 91 79 73 64 47 37 29 7 358 21 54 90 125 131 102 134 187 211 253 249 183 168 168 166 166 168 169 169 167 168 170 168 169 172 173 174 176 180 176 173 176 173 168 169 172 172 167 166 171 167 159 152 148 146 138 131 133 132 129 129 124 118 114 106 99 89 82
290 234 246 259 252 245 252 263 262 260 265 265 237 243 249 200 204 190 154 172 188 164 151 163 170 160 141 127 118 103 94 85 75 72 58 40 36 32 47 66 66 76 102 115 132 160 180 188 222 263 230 167 164 169 167 167 169 169 168 170 172 172 172 176 180 177 176 181 178 173 177 179 170 170 174 173 169 172 176 169 168 168 161 157 150 146 152 148 142 145 141 133 129 124 125 126 110
289 269 236 244 253 249 250 259 252 244 252 257 236 243 251 240 220 181 182 206 201 172 170 173 158 141 136 131 114 101 97 96 87 84 80 54 40 43 52 78 85 86 105 111 154 165 179 186 198 245 255 174 165 176 168 166 170 170 171 172 174 176 175 178 184 180 174 176 175 171 177 181 172 170 175 175 172 177 180 175 178 179 172 170 166 164 168 161 156 161 158 153 155 154 148 139 132
255 271 292 271 256 253 242 247 258 257 259 261 259 259 254 254 264 193 191 205 198 185 188 173 155 154 146 126 116 111 104 102 97 94 90 71 59 55 41 61 96 102 112 110 158 172 177 188 184 204 211 184 192 191 168 168 173 171 174 176 176 178 177 177 183 180 172 173 175 174 180 185 180 174 175 175 176 182 185 182 187 187 182 183 179 177 178 172 171 173 169 171 173 167 162 158 162
230 241 262 265 264 270 259 247 247 261 264 266 273 272 263 294 301 220 195 200 200 197 199 178 165 169 148 125 125 118 111 109 100 98 98 87 78 65 45 47 73 81 93 105 131 150 149 177 184 182 176 167 188 197 163 167 176 176 179 179 178 181 180 177 179 173 167 172 178 182 185 185 183 181 181 181 182 188 191 190 192 192 190 191 189 190 189 183 184 184 179 183 183 177 177 181 186
251 235 241 253 258 258 261 258 250 259 265 271 278 273 292 37 300 226 205 216 206 201 208 191 171 165 142 126 128 117 111 109 101 102 106 100 98 89 75 67 69 65 61 64 66 110 133 149 146 144 144 134 148 160 149 160 177 182 179 178 178 177 173 177 186 186 175 173 178 186 195 193 187 186 187 186 186 193 197 195 195 196 196 196 195 196 196 193 195 193 187 190 190 186 190 192 193
283 278 267 270 275 272 272 272 273 279 281 288 289 284 317 352 251 97 31 271 208 200 208 197 163 147 130 119 121 120 117 115 110 113 113 110 112 109 104 99 92 86 71 55 46 67 117 132 126 134 138 119 121 136 144 157 174 174 171 174 178 174 168 178 189 198 199 195 189 190 195 194 190 191 193 191 192 198 202 200 201 203 202 202 201 201 200 197 200 200 196 198 196 192 197 198 194